Printer-friendly version

IAU Minor Planet Center

Minor Planet Center

MPEC 2008-K16 : 2005 CF41 = 2008 JN20

The following Minor Planet Electronic Circular may be linked-to from your own Web pages, but must not otherwise be redistributed electronically.


Read MPEC 2008-K15 Read MPEC 2008-K17


M.P.E.C. 2008-K16                                Issued 2008 May 20, 04:39 UT

     The Minor Planet Electronic Circulars contain information on unusual
         minor planets and routine data on comets.  They are published
   on behalf of Commission 20 of the International Astronomical Union by the
          Minor Planet Center, Smithsonian Astrophysical Observatory,
                          Cambridge, MA 02138, U.S.A.

             Prepared using the Tamkin Foundation Computer Network

                              MPC@CFA.HARVARD.EDU
          URL http://www.cfa.harvard.edu/iau/mpc.html  ISSN 1523-6714

                             2005 CF41 = 2008 JN20

                           Revision to MPEC 2005-C50

Additional Observations:
     K08J20N  C2008 05 13.89543 17 24 05.29 +33 36 14.1                 EK016204
     K08J20N  C2008 05 13.90246 17 24 05.68 +33 36 39.2          18.4 R EK016204
     K08J20N  C2008 05 13.90948 17 24 06.08 +33 37 04.0                 EK016204

Observer details:
204 Schiaparelli Observatory.  Observer L. Buzzi.  0.60-m f/4.64 reflector
    + CCD.

Orbital elements:
2005 CF41 = 2008 JN20                                    Earth MOID = 0.2077 AU
Epoch 2008 May 14.0 TT = JDT 2454600.5                  MPC
M 324.43492              (2000.0)            P               Q
n   0.46552277     Peri.  208.59942     +0.93132704     +0.30264035
a   1.6488283      Node   132.28548     -0.25959960     +0.94181222
e   0.5860670      Incl.   15.89233     -0.25541731     +0.14628245
P   2.12           H   18.5           G   0.15           U   4
Residuals in seconds of arc
050209 G96  0.2-  0.1-    080510 703  0.4+  0.0     080511 300  0.1-  0.1+
050209 G96  0.4-  0.2-    080510 474  0.3+  1.2-    080511 300  0.5-  0.6+
050209 G96  0.6+  0.2-    080510 474  0.3+  0.2-    080511 474  0.2-  0.8-
050209 G96  0.3-  0.5-    080510 474  0.2+  0.3-    080511 474  0.4-  1.4-
050210 649  2.4+  0.6-    080510 474  0.1+  0.2+    080511 474  0.1+  0.0
050210 649  0.4+  0.6+    080510 B32  0.2-  0.3-    080511 A94  0.9+  2.7+
050210 649  0.7-  0.8-    080510 113  0.2-  0.3-    080512 H55  0.8-  1.4+
050211 649  1.2-  0.6-    080510 113  0.1-  0.2-    080512 H55  0.0   0.3-
050211 649  1.3+  1.1-    080510 113  0.2-  0.1-    080512 H55  0.1+  0.0
050211 649  0.3+  0.3+    080510 B32  0.6-  0.0     080512 H55  0.2+  0.1+
050211 649  0.3-  0.3+    080510 151  0.3+  0.1-    080512 113  0.1+  0.2+
050214 F65  0.6-  0.5+    080510 151  0.2+  0.3+    080512 113  0.2+  0.2-
050214 F65  0.1-  0.3+    080510 151  0.0   0.7+    080512 113  0.1+  0.0
050214 F65  0.5-  1.2+    080510 151  0.0   0.1+    080512 113  0.2+  0.2-
050214 F65  0.7-  0.5+    080510 151  0.3+  0.2-    080512 113  0.5+  0.3-
050214 F65  0.1+  0.3+    080510 151  0.1-  0.1-    080513 H55  0.1-  0.2-
080510 703  0.3+  0.4+    080510 151  0.5-  0.1+    080513 H55  0.0   0.2-
080510 703  0.1-  0.1-    080510 A13  0.1+  0.2+    080513 H55  0.1-  0.1-
080510 703  0.5-  0.1+    080510 A13  0.1+  0.2+    080513 204  0.1-  0.1-
080510 703  0.5-  0.4+    080510 A13  0.1-  0.3+    080513 204  0.0   0.0
080510 H55  0.0   0.1-    080510 A13  0.1+  0.5+    080513 204  0.2+  0.1-
080510 H55  0.0   0.1-    080510 118  0.1-  0.1-    080515 H55  0.5+  0.2+
080510 H55  0.0   0.1-    080510 118  0.3-  0.6-    080515 H55  0.1+  0.1+
080510 703  0.5-  0.3+    080510 118  0.2-  0.4-    080515 H55  0.5-  0.4-
080510 703  0.9-  0.1-    080510 118  0.0   0.2-    080516 H51  0.3-  0.6-
080510 703  0.5-  0.3-    080510 B33  0.0   0.0     080516 H51  0.2-  0.0
080510 703  0.9-  0.9-    080510 B33  0.0   0.3-    080516 H51  0.4+  0.0
080510 854  0.1-  1.0+    080510 B33  0.3-  0.0     080516 H51  0.1+  0.2-
080510 F65  0.0   0.3-    080511 196  0.9+  0.3-    080516 H51  0.1-  0.2-
080510 854  0.4+  0.4-    080511 196  0.3+  0.3-    080516 H51  0.1+  0.2+
080510 854  0.1+  0.5-    080511 196  0.5+  0.0     080516 H51  0.9+  0.3-
080510 F65  0.1+  0.3-    080511 196  0.9+  0.6+    080518 649  0.2-  0.1+
080510 F65  0.3+  0.0     080511 682  0.9-  1.4+    080518 649  0.2-  0.3+
080510 703  0.1-  0.4-    080511 682  0.3+  1.4+    080518 649  0.1+  0.1+
080510 703  0.2+  0.3+    080511 300  0.4+  0.1-    080518 649  0.1-  0.4-
080510 703  0.5-  0.0     080511 300  0.3+  0.2+

Ephemeris:
2005 CF41                a,e,i = 1.65, 0.59, 16                  q = 0.6825
Date    TT    R. A. (2000) Decl.     Delta      r     Elong.  Phase     V
2008 05 14    17 24.17   +33 42.4    0.399    1.261   120.4    43.8    18.7
2008 05 24    17 35.95   +45 04.9    0.319    1.165   110.9    54.3    18.3
2008 06 03    18 00.67   +60 55.8    0.255    1.069    95.4    70.9    18.2
2008 06 13    20 53.80   +81 06.4    0.215    0.973    72.4    95.4    18.5
2008 06 23    04 02.59   +65 02.2    0.218    0.880    46.3   123.4    20.0
2008 07 03    04 47.10   +41 11.7    0.273    0.797    31.4   138.3    21.8

Gareth V. Williams           (C) Copyright 2008 MPC           M.P.E.C. 2008-K16

Read MPEC 2008-K15 Read MPEC 2008-K17


Our Web policy. Index to the CBAT/MPC/ICQ pages.


Valid HTML 4.01!